Dubuque, IA

7:58 AM CDT on July 21, 2017 (GMT -0500)
Dubuque Regional

Weather History for KDBQ - January, 2014

Change the Weather History Date:

Friday, January 31, 2014

  Actual Average Record
Temperature  
Mean Temperature 5 °F 20 °F  
Max Temperature 9 °F 28 °F 60 °F (1989)
Min Temperature 0 °F 12 °F -24 °F (1996)
Degree Days  
Heating Degree Days 60 45  
Month to date heating degree days 1717 1423  
Since 1 July heating degree days 4842 4237  
Cooling Degree Days 0 0  
Month to date cooling degree days 0 0  
Year to date cooling degree days 0 0  
Moisture  
Dew Point -3 °F    
Average Humidity 70    
Maximum Humidity 83    
Minimum Humidity 57    
Precipitation  
Precipitation T in 0.04 in 0.65 in (1908)
Month to date precipitation 0.95 1.17  
Year to date precipitation 0.95 1.17  
Snow  
Snow T in 0.40 in - ()
Month to date snowfall 14.1 10.0  
Since 1 July snowfall 36.4 24.6  
Snow Depth 6.00 in    
Sea Level Pressure  
Sea Level Pressure 30.15 in    
Wind  
Wind Speed 6 mph (NNW)    
Max Wind Speed 14 mph    
Max Gust Speed 16 mph    
Visibility 10 miles    
Events      
T = Trace of Precipitation, MM = Missing Value Source: NWS Daily Summary

Daily Weather History Graph

Daily Weather History Graph

Search for Another Location

Airport or City:

Trip Planner

Search our weather history database for the weather conditions in past years. The results will help you decide how hot, cold, wet, or windy it might be!

Date:

Astronomy

Jan. 31, 2014 Rise Set
Actual Time 7:17 AM CST 5:15 PM CST
Civil Twilight 6:47 AM CST 5:45 PM CST
Nautical Twilight 6:13 AM CST 6:19 PM CST
Astronomical Twilight 5:40 AM CST 6:52 PM CST
Moon 7:25 AM CST (1/31) 6:42 PM CST (1/31)
Length of Visible Light 10h 57m
Length of Day
9h 58m
New Moon, 1% of the Moon is Illuminated
Jan 31
New Moon
Feb 6
First Quarter
Feb 14
Full
Feb 22
Last Quarter
Mar 1
New

Hourly Weather History & Observations

Time (CST) Temp. Windchill Dew Point Humidity Pressure Visibility Wind Dir Wind Speed Gust Speed Precip Events Conditions
12:53 AM 8.1 °F -3.2 °F 1.9 °F 76% 30.03 in 10.0 mi North 6.9 mph - N/A   Clear
1:53 AM 7.0 °F -5.7 °F -0.0 °F 73% 30.06 in 10.0 mi NNW 8.1 mph - N/A   Clear
2:53 AM 5.0 °F -6.9 °F -0.9 °F 76% 30.07 in 10.0 mi NNW 6.9 mph - N/A   Clear
3:53 AM 3.0 °F -12.5 °F -2.9 °F 76% 30.08 in 10.0 mi NW 10.4 mph - N/A   Scattered Clouds
4:53 AM 1.9 °F -11.8 °F -4.0 °F 76% 30.12 in 10.0 mi WNW 8.1 mph - N/A   Clear
5:53 AM 1.0 °F -12.9 °F -4.0 °F 79% 30.14 in 10.0 mi WNW 8.1 mph - N/A   Clear
6:53 AM -0.0 °F -14.2 °F -6.0 °F 76% 30.15 in 10.0 mi NW 8.1 mph - N/A   Clear
7:53 AM 1.0 °F -12.9 °F -6.0 °F 72% 30.17 in 10.0 mi NNW 8.1 mph - N/A   Clear
8:53 AM 1.0 °F -14.0 °F -7.1 °F 69% 30.19 in 10.0 mi NNW 9.2 mph - N/A   Clear
9:53 AM 1.9 °F -10.6 °F -6.0 °F 69% 30.20 in 10.0 mi NNW 6.9 mph - N/A   Clear
10:53 AM 3.9 °F -5.3 °F -6.0 °F 64% 30.23 in 10.0 mi North 4.6 mph - N/A   Clear
11:53 AM 5.0 °F -5.6 °F -6.0 °F 61% 30.22 in 10.0 mi NW 5.8 mph - N/A   Clear
12:53 PM 7.0 °F - -4.0 °F 61% 30.20 in 10.0 mi Calm Calm - N/A   Clear
1:53 PM 7.0 °F -3.3 °F -4.0 °F 61% 30.17 in 10.0 mi NW 5.8 mph - N/A   Clear
2:53 PM 9.0 °F -0.9 °F -2.9 °F 59% 30.17 in 10.0 mi North 5.8 mph - N/A   Clear
3:53 PM 8.1 °F -2.0 °F -4.0 °F 58% 30.16 in 10.0 mi NNW 5.8 mph - N/A   Clear
4:53 PM 7.0 °F -1.7 °F -4.0 °F 61% 30.16 in 10.0 mi NNW 4.6 mph - N/A   Clear
5:53 PM 6.1 °F -0.9 °F -2.9 °F 67% 30.17 in 10.0 mi North 3.5 mph - N/A   Mostly Cloudy
6:53 PM 7.0 °F 0.1 °F -2.9 °F 64% 30.15 in 10.0 mi NNE 3.5 mph - N/A   Overcast
7:53 PM 7.0 °F -1.7 °F -2.9 °F 64% 30.14 in 10.0 mi ENE 4.6 mph - N/A   Overcast
8:53 PM 8.1 °F 1.4 °F -0.9 °F 67% 30.14 in 10.0 mi ESE 3.5 mph - N/A   Overcast
9:53 PM 8.1 °F -2.0 °F -0.9 °F 67% 30.12 in 10.0 mi SE 5.8 mph - N/A   Overcast
10:53 PM 8.1 °F - -0.0 °F 70% 30.13 in 10.0 mi Calm Calm - N/A   Mostly Cloudy
11:53 PM 8.1 °F 1.4 °F -0.0 °F 70% 30.11 in 10.0 mi ENE 3.5 mph - N/A   Overcast